Abu Dhabi, UAE

9:28 PM +04 on June 24, 2018 (GMT +0400)
Abu Dhabi International

Weather History for OMAA - February, 2018

Change the Weather History Date:

Saturday, February 10, 2018

  Actual Average Record
Temperature  
Mean Temperature 64 °F -  
Max Temperature 75 °F 79 °F 89 °F (2001)
Min Temperature 53 °F 60 °F 50 °F (2008)
Degree Days  
Heating Degree Days 1    
Growing Degree Days 14 (Base 50)    
Moisture  
Dew Point 55 °F    
Average Humidity 79    
Maximum Humidity 100    
Minimum Humidity 23    
Precipitation  
Precipitation 0.00 in 0.05 in - ()
Sea Level Pressure  
Sea Level Pressure 29.94 in    
Wind  
Wind Speed 5 mph ()    
Max Wind Speed 13 mph    
Max Gust Speed -    
Visibility 1.6 miles    
Events Fog    
Averages and records for this station are not official NWS values.
T = Trace of Precipitation, MM = Missing Value Source: Averaged Metar Reports

Daily Weather History Graph

Daily Weather History Graph

Search for Another Location

Airport or City:

Astronomy

Feb. 10, 2018 Rise Set
Actual Time 6:58 AM +04 6:12 PM +04
Civil Twilight 6:35 AM +04 6:36 PM +04
Nautical Twilight 6:08 AM +04 7:03 PM +04
Astronomical Twilight 5:41 AM +04 7:29 PM +04
Moon 2:38 AM +04 (2/10) 1:48 PM +04 (2/10)
Length of Visible Light 12h 01m
Length of Day
11h 14m
Waning Crescent, 26% of the Moon is Illuminated
Feb 10
Waning Crescent
Feb 16
New
Feb 23
First Quarter
Mar 2
Full
Mar 9
Last Quarter

Hourly Weather History & Observations

Time (+04) Temp. Dew Point Humidity Pressure Visibility Wind Dir Wind Speed Gust Speed Precip Events Conditions
12:00 AM 62.6 °F 60.8 °F 94% 29.95 in 1.6 mi SW 3.5 mph - N/A   Mist
1:00 AM 63 °F 62 °F 94% 29.95 in 1 mi South 3.5 mph - -   Mist
1:00 AM 62.6 °F 62.6 °F 100% 29.95 in 1.2 mi South 3.5 mph - N/A   Mist
1:30 AM 62.6 °F 60.8 °F 94% 29.92 in 0.9 mi SSW 3.5 mph - N/A Fog Patches of Fog
2:00 AM 60.8 °F 59.0 °F 94% 29.92 in 0.7 mi SSW 5.8 mph - N/A Fog Patches of Fog
2:11 AM 59.0 °F 59.0 °F 100% 29.92 in 0.3 mi South 4.6 mph - N/A Fog Fog
3:00 AM 55.4 °F 55.4 °F 100% 29.92 in 0.1 mi South 4.6 mph - N/A Fog Fog
4:00 AM 58 °F 58 °F 98% 29.92 in 0 mi SSE 4.6 mph - - Fog Heavy Fog
4:00 AM 57.2 °F 57.2 °F 100% 29.92 in 0.1 mi SSE 4.6 mph - N/A Fog Fog
4:30 AM 59.0 °F 59.0 °F 100% 29.92 in 0.1 mi South 4.6 mph - N/A Fog Fog
5:00 AM 57.2 °F 57.2 °F 100% 29.92 in 0.1 mi SSE 5.8 mph - N/A Fog Fog
6:00 AM 55.4 °F 55.4 °F 100% 29.92 in 0.1 mi South 5.8 mph - N/A Fog Fog
7:00 AM 55 °F 55 °F 100% 29.94 in 0 mi South 5.8 mph - - Fog Heavy Fog
7:00 AM 55.4 °F 55.4 °F 100% 29.92 in 0.1 mi South 5.8 mph - N/A Fog Fog
8:00 AM 55.4 °F 55.4 °F 100% 29.95 in 0.1 mi South 6.9 mph - N/A Fog Fog
9:00 AM 55.4 °F 55.4 °F 100% 29.98 in 0.2 mi SSE 3.5 mph - N/A Fog Fog
9:44 AM 57.2 °F 57.2 °F 100% 29.98 in 0.7 mi ESE 3.5 mph - N/A   Scattered Clouds
10:00 AM 56 °F 56 °F 100% 30.01 in 1 mi ESE 3.5 mph - -   Mist
10:00 AM 57.2 °F 57.2 °F 100% 30.01 in 0.7 mi ESE 3.5 mph - N/A   Scattered Clouds
10:26 AM 59.0 °F 59.0 °F 100% 29.98 in 3.1 mi South 3.5 mph - N/A   Haze
11:00 AM 62.6 °F 60.8 °F 94% 29.98 in 4.3 mi SSW 4.6 mph - N/A   Unknown
12:00 PM 69.8 °F 59.0 °F 68% 29.98 in 5.0 mi Variable 3.5 mph - N/A   Unknown
1:00 PM 73.4 °F 51.8 °F 47% 29.92 in - WNW 6.9 mph - N/A   Clear
2:00 PM 73.4 °F 50.0 °F 44% 29.92 in - WNW 10.4 mph - N/A   Clear
3:00 PM 75.2 °F 42.8 °F 31% 29.89 in - WNW 10.4 mph - N/A   Clear
4:00 PM 73 °F 43 °F 23% 29.90 in 6 mi WNW 12.7 mph - -   Clear
4:00 PM 73.4 °F 42.8 °F 33% 29.89 in - WNW 12.7 mph - N/A   Clear
5:00 PM 71.6 °F 42.8 °F 35% 29.89 in - WNW 10.4 mph - N/A   Clear
6:00 PM 69.8 °F 48.2 °F 46% 29.89 in - WNW 9.2 mph - N/A   Clear
7:00 PM 69 °F 53 °F 45% 29.93 in 6 mi NW 8.1 mph - -  
7:00 PM 68.0 °F 51.8 °F 56% 29.92 in - NW 8.1 mph - N/A   Clear
8:00 PM 68.0 °F 53.6 °F 60% 29.92 in - WNW 4.6 mph - N/A   Clear
9:00 PM 66.2 °F 55.4 °F 68% 29.92 in - Variable 2.3 mph - N/A   Clear
10:00 PM 65 °F 55 °F 62% 29.95 in 6 mi West 2.3 mph - -  
10:00 PM 64.4 °F 55.4 °F 73% 29.95 in - West 2.3 mph - N/A   Clear
11:00 PM 64.4 °F 53.6 °F 68% 29.95 in - Variable 1.2 mph - N/A   Clear